User: anonymous   Login
Location: Olsztyn
(53.7767°N, 20.4765°E)
Time: 13:08:30
(UTC+02:00)
Language:

Courier 1B - Orbit

View from above orbital plane
View from above orbital plane
View from above satellite
View from above satellite

Ground track
Ground track

The orbit data is extracted from the following two-line orbital elements,

1 00058U 60013A   24200.89008916  .00000110  00000-0  34456-4 0  9990
2 00058  28.3281  82.8886 0164929 185.6771 174.1896 13.46380417139887
Epoch (UTC): 18 July 2024 21:21:43
Eccentricity: 0.0164929
inclination: 28.3281°
perigee height: 962 km
apogee height: 1209 km
right ascension of ascending node: 82.8886°
argument of perigee: 185.6771°
revolutions per day: 13.46380417
mean anomaly at epoch: 174.1896°
orbit number at epoch: 13988

The dashed part of the orbit path shows where the satellite is in the earth's shadow,  

DLR